Address 0x5cda58cf4c35d6d91c44915cf1bd0d02d90693b9 6

 
Txn Hash Method
Block
From
To
Value [Txn Fee]
0xeb296a5f463546b10e8066db5cf36c433159300737e660d5c820855da9f67a2dZap In217931572021-11-25 18:12:0810 days 1 hr ago0x5cda58cf4c35d6d91c44915cf1bd0d02d90693b9OUT Zapper.Fi: Aave Zap In0.0001 MATIC0.016504768
0x0a6ed1d16be792b244e11c1961220a51c34481e35f134415ff8250664e646fe40x415565b0217931442021-11-25 18:11:2410 days 1 hr ago0x5cda58cf4c35d6d91c44915cf1bd0d02d90693b9OUT 0x: Exchange Proxy0.00001 MATIC0.006931616
0x23cb76d527a67067b23ef491ce6781df0a115d4f0c0d63c5c1d3610b661b13abZap In217931412021-11-25 18:11:1210 days 1 hr ago0x5cda58cf4c35d6d91c44915cf1bd0d02d90693b9OUT Zapper.Fi: Quickswap Zap In0.000001 MATIC0.008649312
0xf9880f87de6c7256943e138ff94b123cd0e18af3a04999c77cb03a992f25785fZap In214080412021-11-15 18:05:1220 days 1 hr ago0x5cda58cf4c35d6d91c44915cf1bd0d02d90693b9OUT Zapper.Fi: Aave Zap In0.001 MATIC0.0150972
0xb9cc5d50a0c90e5bb9b99938f7ed792a95326793de4fbed0da8bc31b08ab80f9Zap In214080052021-11-15 18:04:0020 days 1 hr ago0x5cda58cf4c35d6d91c44915cf1bd0d02d90693b9OUT Zapper.Fi: Quickswap Zap In1 MATIC0.00863406
0x5bf108065eca8ee2163d6cb6bcad08d7529d5f179dd8029f2421c9d94b1f47c40x415565b0214079822021-11-15 18:03:1020 days 1 hr ago0x5cda58cf4c35d6d91c44915cf1bd0d02d90693b9OUT 0x: Exchange Proxy1 MATIC0.00701427
0x3dc2af8dcef5d84fc61c9278f2db7925f153bedfb0a4c6fa045f9eace656185fWithdraw212201952021-11-10 19:55:5225 days 6 mins ago0x5cda58cf4c35d6d91c44915cf1bd0d02d90693b9OUT 0x7ceb23fd6bc0add59e62ac25578270cff1b9f6190 MATIC0.00057714
0xdfe1dab1b22ae1a62315e8634ce81e0e69ea36acfec85d10fa6509ca7263af58Swap Exact Token...212201612021-11-10 19:54:4425 days 7 mins ago0x5cda58cf4c35d6d91c44915cf1bd0d02d90693b9OUT QuickSwap: Router0 MATIC0.00493743
0xf0712c155622378eaf7fb7e1c2b8cbeb5253a77ca6a5f868040859325782d417Swap Exact Token...212194962021-11-10 19:29:3625 days 32 mins ago0x5cda58cf4c35d6d91c44915cf1bd0d02d90693b9OUT QuickSwap: Router0 MATIC0.00318306
0xaf6515d4eec06dc6f7f99d4fc212d1753a4e3649cec05fc9d79c28e8159f90ffForfeit212194352021-11-10 19:26:5025 days 35 mins ago0x5cda58cf4c35d6d91c44915cf1bd0d02d90693b9OUT 0xcf2a11937a906e09ebcb8b638309ae8612850dbf0 MATIC0.00159159
0x269bc299b1d45feec4b0de6ca899b9a8d0fdb8780805204a0f4931008ec5e3b8Stake212106042021-11-10 13:54:5125 days 6 hrs ago0x5cda58cf4c35d6d91c44915cf1bd0d02d90693b9OUT 0x22f587ecf472670c61aa4715d0b76d2fa40a97980 MATIC0.00447555
0xcea7c81e2d53ff3c15865d917976f1db525c9f56282095d697c81754939af96bApprove211908062021-11-10 1:55:4525 days 18 hrs ago0x5cda58cf4c35d6d91c44915cf1bd0d02d90693b9OUT 0x4d6a30efbe2e9d7a9c143fce1c5bb30d9312a4650 MATIC0.0013977
0x5e16a31d4a49a3d55a9e5a3e7ec433980ba38512a4e847a98042881f3153fc61Swap Exact Token...211876842021-11-10 0:05:4425 days 19 hrs ago0x5cda58cf4c35d6d91c44915cf1bd0d02d90693b9OUT QuickSwap: Router0 MATIC0.00318348
0xc730395b9942e292ed2dc09ada22ef2ec499714b969b403f43230bf14fe693f6Swap Exact Token...211871092021-11-09 23:42:5325 days 20 hrs ago0x5cda58cf4c35d6d91c44915cf1bd0d02d90693b9OUT QuickSwap: Router0 MATIC0.00337851
0x4e1bc96d20d1c3a9648a6283474b767a6cefb3ea7f36e394ef2f356d28850dbcSwap And Send211323222021-11-08 14:20:0627 days 5 hrs ago0x5cda58cf4c35d6d91c44915cf1bd0d02d90693b9OUT 0x76b22b8c1079a44f1211d867d68b1eda76a635a70 MATIC0.00672681
0x3363e8b1f28c392333226d07d5914e5bea64278b5ed93266f547c9866a5aea69Swap Exact Token...211323032021-11-08 14:19:2827 days 5 hrs ago0x5cda58cf4c35d6d91c44915cf1bd0d02d90693b9OUT QuickSwap: Router0 MATIC0.00355707
0x9945c39451fb46e32667c41c68b38a19a3ed77710881097755a7e8c5e95144dbSwap Exact Token...211100082021-11-08 0:30:2527 days 19 hrs ago0x5cda58cf4c35d6d91c44915cf1bd0d02d90693b9OUT QuickSwap: Router0 MATIC0.00318306
0x52ccf08efe17aac6ec1f22c775a7d3fedbfc669fcbf012a19bf5b40731ee7145Swap Exact Token...211095562021-11-08 0:12:4527 days 19 hrs ago0x5cda58cf4c35d6d91c44915cf1bd0d02d90693b9OUT QuickSwap: Router0 MATIC0.00318348
0xf68e5799c58d253b3bd64515a10cdf9a451cb7d00d57d2c265c1cd77491767cdSwap Exact Token...211069212021-11-07 22:37:4627 days 21 hrs ago0x5cda58cf4c35d6d91c44915cf1bd0d02d90693b9OUT QuickSwap: Router0 MATIC0.00318306
0xb12fa8d09dc143cf2cab0aeea7698f2a12d2222bd819fada3c46f7aca15e29e2Unstake211068932021-11-07 22:36:5027 days 21 hrs ago0x5cda58cf4c35d6d91c44915cf1bd0d02d90693b9OUT 0xcf2a11937a906e09ebcb8b638309ae8612850dbf0 MATIC0.00255618
0xf02d8cde21fa56cfb28a1abd996ac0a8f111559b7cdc6af04b9223613df4b342Approve211068682021-11-07 22:35:5627 days 21 hrs ago0x5cda58cf4c35d6d91c44915cf1bd0d02d90693b9OUT 0x3949f058238563803b5971711ad19551930c82090 MATIC0.00139356
0x3cf7bf156023f6b92ef735f121447baa9b888a414fc50a56d66edd97eec672c2Stake210612262021-11-06 19:08:1729 days 54 mins ago0x5cda58cf4c35d6d91c44915cf1bd0d02d90693b9OUT 0xe7bcbe1fb4f0eae667feb64b007176ac790675f20 MATIC0.00352563
0x82d2f749e4462edfc4c93668a5d8fb340badb1d43ac992e4fbd916574c3e5871Swap Exact Token...210571632021-11-06 16:38:1229 days 3 hrs ago0x5cda58cf4c35d6d91c44915cf1bd0d02d90693b9OUT QuickSwap: Router0 MATIC0.00318348
0x100df42c338598c306a254e9c83b663575ea46e48b1e77117db2dd03515d9e5fSwap Exact Token...210564252021-11-06 16:12:4629 days 3 hrs ago0x5cda58cf4c35d6d91c44915cf1bd0d02d90693b9OUT QuickSwap: Router0 MATIC0.00318306
0xb13639d8e6b3e187c72b92000a13231bd41e2743713a48f7eeaaf4dfdda11cf6Approve210562072021-11-06 16:05:1829 days 3 hrs ago0x5cda58cf4c35d6d91c44915cf1bd0d02d90693b9OUT 0x4d6a30efbe2e9d7a9c143fce1c5bb30d9312a4650 MATIC0.00139734
[ Download CSV Export 
Latest 1 internal transaction
Parent Txn Hash Block From To Value
0x1ecd490ad6be752bdc7dbac9e31bb11662ec0a3602ba15425e03ce5b9fec195e203568262021-10-18 20:17:5347 days 23 hrs ago SushiSwap: SushiV2Router020x5cda58cf4c35d6d91c44915cf1bd0d02d90693b950 MATIC
[ Download CSV Export 
Loading

Contract Name:
0 MATIC

Compiler Version
0

Optimization Enabled:
0 MATIC

Other Settings:
-NA-
Block Transaction Gas Used Reward
Age Block Fee Address BC Fee Address Voting Power Jailed Incoming
Block Uncle Number Difficulty Gas Used Reward
Loading
Loading
Make sure to use the "Vote Down" button for any spammy posts, and the "Vote Up" for interesting conversations.